Вернуться в каталог

DELTA 1 DEB

АктивенUNKNOWN
NORAD 7035·DEBRIS·🇺🇸 United States

Запущен Nov 6, 1973 с Vandenberg Space Force Base

Loading…

Ближайшие Пролёты (ближайшие 24 часа)

TLE

СвежийSource: Space-Track

Эпоха: Sep 13, 2026, 23:10 UTC

1  7035U 73086AB  26256.96588303 -.00000103  00000-0 -85855-3 0  9992
2  7035 101.7837 160.9609 0319219 315.6608  56.0765 11.83664341280858

Отслеживайте DELTA 1 DEB в реальном времени с AllMySat

Download on the App Store